Location: Linz
(48.3300°N, 14.3000°E)
Time: 03:53:40
(UTC+01:00)

N. Korean satellite - Pass Details

Date: 18 November 2017
Orbit: 460 x 514 km, 97.2° (Epoch: 20 November)

Event Time Altitude Azimuth Distance (km) Brightness Sun altitude
Rises 16:57:01 0° 130° (SE) 2,496 9.9 -6.3°
Reaches altitude 10° 16:59:25 10° 113° (ESE) 1,633 8.8 -6.6°
Maximum altitude 17:02:00 20° 65° (ENE) 1,166 7.9 -7.0°
Drops below altitude 10° 17:04:38 10° 18° (NNE) 1,663 8.9 -7.5°
Sets 17:07:06 0° 1° (N) 2,560 10.0 -7.8°
